CubeBel-2 (EU11S)
1 57175U 23091K   26181.79347876  .00014555  00000-0  51049-3 0  9991
2 57175  97.5047 245.1339 0010822  73.1255 287.1171 15.29491380166385
RS-38S
1 57189U 23091Z   26181.82630742  .00019425  00000-0  54735-3 0  9993
2 57189  97.5090 251.5878 0007110  34.1141 326.0558 15.36454620166784
SONATE-2
1 59112U 24043Q   26181.35906171  .00036054  00000-0  45103-3 0  9995
2 59112  97.5538 332.5725 0007218 152.8978 207.2657 15.59704292129940
GRBBeta
1 60237U 24128C   26181.42701108  .00003214  00000-0  22613-3 0  9993
2 60237  61.9879 169.8110 0038958 137.4915 222.9206 15.06717012108269
Curium One
1 60242U 24128H   26181.52377334  .00006801  00000-0  39255-3 0  9995
2 60242  61.9769 158.5321 0038138 133.4929 226.9348 15.12673912108474
ROBUSTA-3A
1 60243U 24128J   26181.49606063  .00005601  00000-0  33314-3 0  9993
2 60243  61.9847 161.1742 0039833 130.7455 229.7110 15.11802352108431
CatSat
1 60246U 24125J   26181.55104646  .00065494  00000-0  78879-3 0  9991
2 60246  97.2063  34.2392 0022130 133.4648 226.8455 15.60299748109471
HYPERVIEW-1G (RS66S)
1 61772U 24199AP  26181.82600108  .00199408  00000-0  10605-2 0  9996
2 61772  97.2835  62.2715 0006954 177.0549 183.0761 15.79892045136825
AO-123
1 61781U 24199AY  26181.84783938  .00008193  00000-0  23651-3 0  9997
2 61781  97.2981  50.3960 0011922 257.6565 102.3345 15.35867271136020
JINJUSat 1B
1 63210U 25052A   26181.65145777  .00016245  00000-0  49687-3 0  9991
2 63210  97.3995  78.4273 0004849  62.4962 297.6773 15.33918367 72164
NUSHSAT 1
1 63211U 25052B   26181.28233821  .00018913  00000-0  53283-3 0  9990
2 63211  97.3969  78.6690 0004635  68.8250 291.3489 15.36477601 72152
TEVEL2-4
1 63213U 25052D   26180.96071089  .00019361  00000-0  57064-3 0  9991
2 63213  97.3893  77.3762 0004732  79.7406 280.4371 15.35054118 72071
TEVEL2-5
1 63214U 25052E   26181.24344693  .00016701  00000-0  49542-3 0  9995
2 63214  97.3890  77.6036 0004702  80.7172 279.4603 15.34882414 72113
TEVEL2-6
1 63215U 25052F   26181.51685502  .00018240  00000-0  54121-3 0  9992
2 63215  97.3897  77.8619 0004505  81.0945 279.0808 15.34857280 72153
TEVEL2-1
1 63217U 25052H   26180.96361751  .00018395  00000-0  55563-3 0  9991
2 63217  97.3866  76.9168 0004975  89.0963 271.0850 15.34288206 72053
TEVEL2-3
1 63218U 25052J   26180.95778371  .00018482  00000-0  55722-3 0  9995
2 63218  97.3871  76.9346 0004829  90.2105 269.9691 15.34347673 72051
TEVEL2-2
1 63219U 25052K   26179.65946029  .00016937  00000-0  51245-3 0  9997
2 63219  97.3871  75.6148 0005015  92.1173 268.0645 15.34253315 71857
TEVEL2-9
1 63237U 25052AD  26181.21912539  .00014659  00000-0  47181-3 0  9994
2 63237  97.3929  76.5220 0008309  96.6090 263.6098 15.32290550 72021
TEVEL2-7
1 63238U 25052AE  26181.65447772  .00016416  00000-0  53277-3 0  9991
2 63238  97.3931  76.8668 0008383  95.4653 264.7545 15.31999023 72083
TEVEL2-8
1 63239U 25052AF  26181.66286101  .00016322  00000-0  52998-3 0  9995
2 63239  97.3931  76.8517 0008443  96.1154 264.1049 15.31984163 72080
SPIRONE
1 66657U 25274H   26181.38598585  .00001805  00000-0  17630-3 0  9993
2 66657  97.7480 110.4890 0011447 337.8599  22.2125 14.93598525 32191
K-HERO
1 66660U 25274L   26181.72178356  .00001714  00000-0  16585-3 0  9992
2 66660  97.7486 110.9907 0013359 340.3719  19.6985 14.94013166 32257
SNUGLITE-III DURI
1 66661U 25274M   26181.37435647  .00001684  00000-0  16290-3 0  9992
2 66661  97.7483 110.6689 0014070 342.3155  17.7574 14.94047987 32202
SAKHACUBE-CHOLBON
1 67290U 25313AU  26180.95542811  .00010232  00000-0  41104-3 0  9991
2 67290  97.3940 255.8318 0007820 315.8507  44.2106 15.25108938 27925
RS95S (QMR-KWT-2)
1 67291U 25313AV  26180.93157005  .00014059  00000-0  53868-3 0  9998
2 67291  97.3929 256.0107 0007332 312.2801  47.7815 15.26613684 27934
Ten-Koh2
1 68261U 25241B   26181.39325361  .00004376  00000-0  19162-3 0  9999
2 68261  51.6668 256.7762 0005152 181.4048 178.6917 15.24036074 16920
JACK-002
1 68417U 26067B   26181.39821119  .00006071  00000-0  28873-3 0  9994
2 68417  97.4572 139.8267 0001456 160.2717 199.8574 15.19551382 13959
DISCO 2
1 68431U 26067R   26181.68545485  .00008376  00000-0  40023-3 0  9992
2 68431  97.4608 140.0992 0001219  20.9483 339.1801 15.19273219 13999
HADES-SA (SpinnyONE)
1 68446U 26067AG  26180.60419090  .00016915  00000-0  79855-3 0  9994
2 68446  97.4405 138.7174 0008444  50.7597 309.4385 15.19479734 13818
PARUS-6U1
1 68456U 26067AS  26181.83723985  .00006760  00000-0  33884-3 0  9991
2 68456  97.4560 139.9919 0006415  35.1767 324.9889 15.17659408 14002
SAL-E
1 68458U 26067AU  26181.43478372  .00008115  00000-0  40268-3 0  9996
2 68458  97.4484 139.5239 0007000  44.0794 316.0997 15.17944553 13942
FSI-SAT 2
1 68792U 26088A   26181.36733791  .00004768  00000-0  32221-3 0  9991
2 68792  97.5078 330.2962 0015474  65.2632 295.0205 15.06936124 10270
OrigamiSat 2
1 68795U 26088D   26181.82331750  .00013937  00000-0  88124-3 0  9995
2 68795  97.5088 330.9189 0015303  36.6730 323.5543 15.09038526 10357
ARICA 2
1 68796U 26088E   26181.82621175  .00005166  00000-0  33396-3 0  9995
2 68796  97.5077 330.9017 0016277  36.4428 323.7905 15.08534857 10350
WASEDA-SAT-ZERO-II
1 68797U 26088F   26181.35556300  .00005964  00000-0  38230-3 0  9999
2 68797  97.5074 330.4549 0016079  37.7272 322.5081 15.08786382 10280
MANGARO-II-Piscus
1 68798U 26088G   26181.14603708  .00004202  00000-0  26947-3 0  9998
2 68798  97.5085 330.2828 0019896  40.9633 319.3086 15.08877426 10254
IO-86
1 40931U          25360.30710720  .00000000  00000-0  12800-3 0    00
2 40931   6.0006 332.5373 0012733 338.8432   8.1437 14.79075515    01
LILIUM-4                
1 71922C 26067AC  26089.50133053 -.00014632  00000+0 -74472-3 0    04
2 71922  97.4497  49.1617 0004341   5.9603 355.7042 15.16896692    16
